Weather History for Moline, IL

Change the Weather History Date:

Wednesday, September 25, 2013

  Actual Average Record
Temperature  
Mean Temperature 65 °F 61 °F  
Max Temperature 79 °F 73 °F 91 °F (1920)
Min Temperature 50 °F 50 °F 30 °F (1942)
Degree Days  
Heating Degree Days 0 5  
Month to date heating degree days 55 63  
Since 1 July heating degree days 66 71  
Cooling Degree Days 0 2  
Month to date cooling degree days 150 99  
Year to date cooling degree days 964 982  
Growing Degree Days 14 (Base 50)    
Moisture  
Dew Point 51 °F    
Average Humidity 65    
Maximum Humidity 93    
Minimum Humidity 36    
Precipitation  
Precipitation 0.00 in 0.10 in 1.56 in (1993)
Month to date precipitation 0.88 2.63  
Year to date precipitation 33.49 29.79  
Snow  
Snow 0.00 in 0.00 in - ()
Month to date snowfall 0.0 0.0  
Since 1 July snowfall 0.0 0.0  
Since 1 September snowfall 0.0 0.0  
Snow Depth 0.00 in    
Sea Level Pressure  
Sea Level Pressure 29.92 in    
Wind  
Wind Speed 7 mph (East)    
Max Wind Speed 13 mph    
Max Gust Speed 17 mph    
Visibility 9 miles    
Events      
T = Trace of Precipitation, MM = Missing Value Source: NWS Daily Summary

Daily Weather History Graph

Daily Weather History Graph

Search for Another Location

Airport:

Trip Planner

Search our weather history database for the weather conditions in past years. The results will help you decide how hot, cold, wet, or windy it might be!

Date:

Astronomy

Sep. 25, 2013 Rise Set
Actual Time 6:52 AM CDT 6:53 PM CDT
Civil Twilight 6:25 AM CDT 7:21 PM CDT
Nautical Twilight 5:52 AM CDT 7:53 PM CDT
Astronomical Twilight 5:20 AM CDT 8:26 PM CDT
Moon 10:56 PM CDT (9/25) 1:02 PM CDT (9/25)
Length of Visible Light 12h 55m
Length of Day
12h 00m
Waning Gibbous, 64% of the Moon is Illuminated
Sep 25
Waning Gibbous
Sep 26
Last Quarter
Oct 4
New
Oct 11
First Quarter
Oct 18
Full

Hourly Weather History & Observations

Time (CDT) Temp. Dew Point Humidity Pressure Visibility Wind Dir Wind Speed Gust Speed Precip Events Conditions
12:52 AM 59.0 °F 50.0 °F 72% 29.92 in 10.0 mi ENE 10.4 mph - N/A   Partly Cloudy
1:52 AM 57.0 °F 50.0 °F 77% 29.92 in 10.0 mi East 8.1 mph - N/A   Partly Cloudy
2:52 AM 55.9 °F 51.1 °F 84% 29.91 in 10.0 mi ENE 5.8 mph - N/A   Scattered Clouds
3:52 AM 55.0 °F 50.0 °F 83% 29.91 in 10.0 mi ENE 8.1 mph - N/A   Scattered Clouds
4:52 AM 54.0 °F 50.0 °F 86% 29.91 in 9.0 mi ENE 5.8 mph - N/A   Clear
5:52 AM 52.0 °F 48.9 °F 89% 29.91 in 7.0 mi ESE 4.6 mph - N/A   Clear
6:52 AM 50.0 °F 48.0 °F 93% 29.93 in 6.0 mi East 5.8 mph - N/A   Clear
7:52 AM 54.0 °F 51.1 °F 90% 29.94 in 5.0 mi East 6.9 mph - N/A   Clear
8:52 AM 57.9 °F 51.1 °F 78% 29.96 in 7.0 mi East 4.6 mph - N/A   Clear
9:52 AM 62.1 °F 51.1 °F 67% 29.96 in 10.0 mi ENE 8.1 mph - N/A   Unknown
10:52 AM 66.9 °F 51.1 °F 57% 29.96 in 10.0 mi East 5.8 mph - N/A   Clear
11:52 AM 72.0 °F 51.1 °F 48% 29.95 in 10.0 mi East 9.2 mph - N/A   Clear
12:52 PM 73.9 °F 50.0 °F 43% 29.94 in 10.0 mi East 6.9 mph - N/A   Clear
1:52 PM 77.0 °F 48.9 °F 37% 29.91 in 10.0 mi NE 10.4 mph - N/A   Clear
2:52 PM 79.0 °F 50.0 °F 36% 29.89 in 10.0 mi NE 6.9 mph - N/A   Clear
3:52 PM 78.1 °F 50.0 °F 37% 29.88 in 10.0 mi ENE 5.8 mph - N/A   Clear
4:52 PM 78.1 °F 50.0 °F 37% 29.89 in 10.0 mi ENE 4.6 mph - N/A   Clear
5:52 PM 75.9 °F 51.1 °F 42% 29.89 in 10.0 mi ENE 5.8 mph - N/A   Clear
6:52 PM 66.9 °F 54.0 °F 63% 29.89 in 10.0 mi ESE 4.6 mph - N/A   Clear
7:52 PM 62.1 °F 54.0 °F 75% 29.91 in 10.0 mi ESE 3.5 mph - N/A   Clear
8:52 PM 57.9 °F 53.1 °F 84% 29.91 in 10.0 mi ESE 5.8 mph - N/A   Clear
9:52 PM 57.9 °F 52.0 °F 81% 29.92 in 10.0 mi East 9.2 mph - N/A   Clear
10:52 PM 60.1 °F 51.1 °F 72% 29.93 in 10.0 mi East 10.4 mph - N/A   Clear
11:52 PM 57.0 °F 51.1 °F 81% 29.94 in 10.0 mi East 8.1 mph - N/A   Clear